User: anonymous   Login
Location: Unspecified
(0.0000°N, 0.0000°E)
Time: 01:05:03
(UTC+00:00)
Language:

STARLINK-34602 - Orbit

View from above orbital plane
View from above orbital plane
View from above satellite
View from above satellite

Ground track
Ground track

The orbit is defined by the following mean orbital elements,

1 65333U          26145.45575005 +.00000000 +00000-0 +43735-3 0 00007
2 65333  53.1596 209.9094 0000996  83.1961 276.9154 15.31713781    07
Epoch (UTC): 25 May 2026 10:56:16
Eccentricity: 0.0000996
inclination: 53.1596°
perigee height: 470 km
apogee height: 471 km
right ascension of ascending node: 209.9094°
argument of perigee: 83.1961°
revolutions per day: 15.31713781
mean anomaly at epoch: 276.9154°

The dashed part of the orbit path shows where the satellite is in the earth's shadow,  

DLR